Kahului, HI

10:55 AM HST on August 21, 2017 (GMT -1000)
Kahului

Weather History for PHOG - January, 2013

Change the Weather History Date:

Monday, January 21, 2013

  Actual Average Record
Temperature  
Mean Temperature 73 °F 72 °F  
Max Temperature 79 °F 81 °F 87 °F (1984)
Min Temperature 67 °F 63 °F 50 °F (1972)
Degree Days  
Heating Degree Days 0 0  
Month to date heating degree days 0 0  
Since 1 July heating degree days 0 0  
Cooling Degree Days 8 7  
Month to date cooling degree days 156 147  
Year to date cooling degree days 156 147  
Growing Degree Days 22 (Base 50)    
Moisture  
Dew Point 59 °F    
Average Humidity 61    
Maximum Humidity 73    
Minimum Humidity 48    
Precipitation  
Precipitation 0.01 in 0.10 in 2.20 in (1982)
Month to date precipitation 0.97 2.00  
Year to date precipitation 0.97 2.00  
Snow  
Snow 0.00 in - - ()
Month to date snowfall 0.0  
Since 1 July snowfall 0.0  
Snow Depth 0.00 in    
Sea Level Pressure  
Sea Level Pressure 30.11 in    
Wind  
Wind Speed 18 mph (NE)    
Max Wind Speed 28 mph    
Max Gust Speed 32 mph    
Visibility 10 miles    
Events      
T = Trace of Precipitation, MM = Missing Value Source: NWS Daily Summary

Daily Weather History Graph

Daily Weather History Graph

Search for Another Location

Airport or City:

Trip Planner

Search our weather history database for the weather conditions in past years. The results will help you decide how hot, cold, wet, or windy it might be!

Date:

Astronomy

Jan. 21, 2013 Rise Set
Actual Time 7:04 AM HST 6:09 PM HST
Civil Twilight 6:41 AM HST 6:33 PM HST
Nautical Twilight 6:14 AM HST 7:00 PM HST
Astronomical Twilight 5:47 AM HST 7:26 PM HST
Moon 2:00 PM HST 2:41 AM HST
Length of Visible Light 11h 51m
Length of Day
11h 04m
Waxing Gibbous, 76% of the Moon is Illuminated
Jan 21
Waxing Gibbous
Jan 26
Full
Feb 3
Last Quarter
Feb 9
New
Feb 17
First Quarter

Hourly Weather History & Observations

Time (HST) Temp. Dew Point Humidity Pressure Visibility Wind Dir Wind Speed Gust Speed Precip Events Conditions
12:54 AM 70.0 °F 57.9 °F 65% 30.08 in 10.0 mi NE 16.1 mph - N/A   Partly Cloudy
1:54 AM 70.0 °F 57.0 °F 63% 30.08 in 10.0 mi NE 15.0 mph - N/A   Clear
2:54 AM 66.9 °F 57.0 °F 70% 30.07 in 10.0 mi ENE 9.2 mph - N/A   Clear
3:54 AM 66.9 °F 57.0 °F 70% 30.07 in 10.0 mi ENE 9.2 mph - N/A   Clear
4:54 AM 70.0 °F 57.9 °F 65% 30.08 in 10.0 mi NE 15.0 mph - N/A   Mostly Cloudy
5:54 AM 69.1 °F 57.0 °F 65% 30.09 in 10.0 mi NE 16.1 mph 25.3 mph N/A   Clear
6:54 AM 68.0 °F 57.0 °F 68% 30.11 in 10.0 mi NE 9.2 mph - N/A   Scattered Clouds
7:54 AM 71.1 °F 57.0 °F 61% 30.12 in 10.0 mi NE 11.5 mph - N/A   Scattered Clouds
8:54 AM 73.9 °F 57.0 °F 55% 30.14 in 10.0 mi NE 12.7 mph - 0.01 in   Scattered Clouds
9:54 AM 75.9 °F 59.0 °F 56% 30.15 in 10.0 mi NE 20.7 mph 25.3 mph N/A   Partly Cloudy
10:54 AM 77.0 °F 57.0 °F 50% 30.14 in 10.0 mi NNE 24.2 mph 28.8 mph N/A   Partly Cloudy
11:54 AM 78.1 °F 59.0 °F 52% 30.13 in 10.0 mi NNE 24.2 mph - N/A   Partly Cloudy
12:54 PM 79.0 °F 57.9 °F 48% 30.10 in 10.0 mi NNE 26.5 mph 32.2 mph N/A   Partly Cloudy
1:54 PM 78.1 °F 60.1 °F 54% 30.08 in 10.0 mi NE 25.3 mph 31.1 mph N/A   Partly Cloudy
2:54 PM 78.1 °F 59.0 °F 52% 30.07 in 10.0 mi NE 23.0 mph - N/A   Partly Cloudy
3:54 PM 77.0 °F 61.0 °F 58% 30.08 in 10.0 mi NE 24.2 mph 31.1 mph N/A   Partly Cloudy
4:54 PM 75.0 °F 60.1 °F 60% 30.09 in 10.0 mi NE 21.9 mph - N/A   Partly Cloudy
5:54 PM 73.0 °F 59.0 °F 61% 30.10 in 10.0 mi NE 15.0 mph - N/A   Partly Cloudy
6:54 PM 72.0 °F 60.1 °F 66% 30.12 in 10.0 mi NE 15.0 mph - N/A   Partly Cloudy
7:54 PM 71.1 °F 61.0 °F 70% 30.13 in 10.0 mi NE 16.1 mph - N/A   Clear
8:54 PM 71.1 °F 60.1 °F 68% 30.14 in 10.0 mi NE 16.1 mph - N/A   Clear
9:54 PM 71.1 °F 60.1 °F 68% 30.15 in 10.0 mi NE 16.1 mph - N/A   Clear
10:54 PM 72.0 °F 61.0 °F 68% 30.13 in 10.0 mi NNE 23.0 mph 27.6 mph N/A   Clear
11:54 PM 71.1 °F 62.1 °F 73% 30.14 in 10.0 mi NE 15.0 mph 21.9 mph N/A   Clear